Location: Bouchavesnes-Bergen
(49.9859°N, 2.9203°E)
Time: 11:41:56
(UTC+00:00)

METEOR-M - Pass Details

Date: 09 March 2021
Orbit: 815 x 820 km, 98.5° (Epoch: 13 April)

Event Time Altitude Azimuth Distance (km) Brightness Sun altitude
Rises 04:45:25 0° 13° (NNE) 3,358 7.7 -15.1°
Reaches altitude 10° 04:47:47 10° 12° (NNE) 2,421 6.9 -14.8°
Maximum altitude 04:53:07 75° 288° (WNW) 849 4.1 -13.9°
Drops below altitude 10° 04:58:26 10° 204° (SSW) 2,402 6.3 -13.1°
Sets 05:00:46 0° 202° (SSW) 3,330 7.0 -12.7°
